This demonstration page uses our WeatherBlox Daily Observations layout. Learn more.

40.92945, -100.16068

Hourly Observations for February 11, 2019

Temp ( °F °C ) Dew Point ( °F °C ) Humidity (%) Winds ( mph kmh ) Pressure ( in mb ) Visibility ( mi km ) Precip ( " mm )
12:15 am 00:15 Cloudy with Mist and Fog 24 -4.7 22 -5.8 92 92 E 10 17 30.11 1020 1.25 2.011675 0 0
12:35 am 00:35 Cloudy with Mist and Fog 24 -4.7 22 -5.8 92 92 E 13 20 30.1 1019 1 1.60934 0 0
12:55 am 00:55 Cloudy with Mist and Fog 24 -4.7 22 -5.8 92 92 E 12 19 30.07 1018 1 1.60934 0 0
1:15 am 01:15 Cloudy with Mist and Fog 24 -4.5 22 -5.6 92 92 ESE 10 17 30.08 1019 1 1.60934 0 0
1:35 am 01:35 Cloudy with Mist and Fog 24 -4.2 23 -5.2 93 93 ESE 10 17 30.09 1019 1.25 2.011675 0 0
1:55 am 01:55 Cloudy with Mist and Fog 25 -4 23 -5 93 93 ESE 10 17 30.08 1019 1.5 2.41401 0 0
2:15 am 02:15 Cloudy with Mist and Fog 25 -4 23 -5 93 93 E 12 19 30.07 1018 1.5 2.41401 0 0
2:35 am 02:35 Cloudy with Mist and Fog 25 -4 23 -5 93 93 E 10 17 30.06 1018 1.75 2.816345 0 0
2:55 am 02:55 Cloudy with Mist and Fog 25 -4 23 -5 93 93 ESE 10 17 30.06 1018 1.75 2.816345 0 0
3:15 am 03:15 Cloudy with Mist and Fog 25 -4 23 -5 93 93 E 9 15 30.05 1018 1.75 2.816345 0 0
3:35 am 03:35 Cloudy with Mist and Fog 25 -4 23 -5 93 93 E 12 19 30.04 1017 1.75 2.816345 0 0
3:55 am 03:55 Cloudy with Mist and Fog 25 -4.1 23 -5.1 93 93 E 9 15 30.03 1017 2 3.21868 0 0
4:15 am 04:15 Cloudy with Mist and Fog 25 -4.1 23 -5.1 93 93 E 7 11 30.02 1017 2 3.21868 0 0
4:35 am 04:35 Cloudy with Mist and Fog 25 -4 23 -5 93 93 E 8 13 30.01 1016 1.75 2.816345 0 0
4:55 am 04:55 Cloudy with Mist and Fog 25 -4 23 -5 93 93 E 8 13 29.99 1015 2 3.21868 0 0
5:15 am 05:15 Cloudy with Mist and Fog 26 -3.4 24 -4.3 94 94 ESE 10 17 29.98 1015 2 3.21868 0 0
5:35 am 05:35 Cloudy with Mist and Fog 26 -3.2 25 -4.1 94 94 E 8 13 29.98 1015 2 3.21868 0 0
5:55 am 05:55 Cloudy with Mist and Fog 27 -3 25 -4 93 93 E 9 15 29.98 1015 2 3.21868 0 0
6:15 am 06:15 Cloudy with Mist and Fog 27 -3 25 -3.8 94 94 E 7 11 29.98 1015 2 3.21868 0 0
6:35 am 06:35 Cloudy with Mist and Fog 27 -3 25 -3.8 94 94 E 9 15 29.97 1015 2 3.21868 0 0
6:55 am 06:55 Cloudy with Mist and Fog 27 -3 25 -3.8 94 94 ESE 10 17 29.96 1014 2 3.21868 0 0
7:15 am 07:15 Cloudy with Mist and Fog 27 -2.9 25 -3.7 94 94 ESE 12 19 29.95 1014 1.75 2.816345 0 0
7:35 am 07:35 Cloudy with Mist and Fog 27 -2.8 25 -3.7 94 94 E 10 17 29.94 1014 2 3.21868 0 0
7:55 am 07:55 Cloudy with Mist and Fog 27 -3 25 -3.8 94 94 E 9 15 29.94 1014 2 3.21868 0 0
8:15 am 08:15 Cloudy with Mist and Fog 27 -2.9 26 -3.5 96 96 E 9 15 29.92 1013 1.25 2.011675 0 0
8:35 am 08:35 Cloudy with Mist and Fog 27 -3 26 -3.6 96 96 E 9 15 29.92 1013 1.25 2.011675 0 0
8:55 am 08:55 Cloudy with Mist and Fog 27 -3 25 -3.7 95 95 E 9 15 29.93 1013 1 1.60934 0 0
9:15 am 09:15 Cloudy with Mist and Fog 27 -3 25 -3.7 95 95 E 10 17 29.93 1013 1.5 2.41401 0 0
9:35 am 09:35 Cloudy with Mist and Fog 27 -3 25 -3.8 94 94 E 9 15 29.92 1013 1.75 2.816345 0 0
9:55 am 09:55 Cloudy with Mist and Fog 27 -2.9 25 -3.7 94 94 E 10 17 29.93 1013 1.75 2.816345 0 0
10:15 am 10:15 Cloudy with Mist and Fog 27 -2.8 26 -3.6 94 94 E 7 11 29.91 1013 1.75 2.816345 0 0
10:35 am 10:35 Cloudy with Mist and Fog 27 -2.8 26 -3.6 94 94 E 8 13 29.9 1013 2 3.21868 0 0
10:55 am 10:55 Cloudy with Mist and Fog 27 -2.7 26 -3.5 94 94 ESE 8 13 29.9 1013 2 3.21868 0 0
11:15 am 11:15 Cloudy with Mist and Fog 28 -2.5 26 -3.3 94 94 E 7 11 29.9 1013 2 3.21868 0 0
11:35 am 11:35 Cloudy with Mist and Fog 28 -2.5 26 -3.2 95 95 ESE 6 9 29.9 1013 2 3.21868 0 0
11:55 am 11:55 Cloudy with Mist and Fog 28 -2.3 26 -3.1 94 94 E 7 11 29.9 1012 2.5 4.02335 0 0
12:15 pm 12:15 Cloudy with Mist and Fog 28 -2.1 27 -3 94 94 ESE 7 11 29.89 1012 2.5 4.02335 0 0
12:35 pm 12:35 Cloudy with Mist and Fog 28 -2.1 27 -2.9 94 94 E 7 11 29.89 1012 2.5 4.02335 0 0
12:55 pm 12:55 Cloudy with Mist and Fog 28 -2 27 -2.8 94 94 E 6 9 29.88 1012 3 4.82802 0 0
1:15 pm 13:15 Cloudy with Mist and Fog 28 -2 27 -3 93 93 E 7 11 29.88 1012 2.5 4.02335 0 0
1:35 pm 13:35 Cloudy with Mist and Fog 29 -1.8 27 -3 92 92 ESE 5 7 29.87 1012 4 6.43736 0 0
1:55 pm 13:55 Cloudy with Mist and Fog 29 -1.8 27 -2.9 92 92 E 3 6 29.87 1012 2.5 4.02335 0 0
2:15 pm 14:15 Cloudy with Mist and Fog 29 -1.7 27 -2.8 92 92 E 3 6 29.87 1012 2.5 4.02335 0 0
2:35 pm 14:35 Cloudy with Mist and Fog 29 -1.7 27 -2.8 92 92 E 5 7 29.88 1012 2.5 4.02335 0 0
2:55 pm 14:55 Cloudy with Mist and Fog 29 -1.6 27 -2.8 92 92 ENE 3 6 29.88 1012 3 4.82802 0 0
3:15 pm 15:15 Cloudy with Mist and Fog 29 -1.5 27 -2.7 92 92 NE 6 9 29.89 1012 3 4.82802 0 0
3:35 pm 15:35 Cloudy with Mist and Fog 29 -1.5 27 -2.6 92 92 E 5 7 29.89 1012 4 6.43736 0 0
3:55 pm 15:55 Cloudy 29 -1.5 27 -3 90 90 E 3 6 29.9 1013 10 16.0934 0 0
4:15 pm 16:15 Cloudy 29 -1.5 27 -3 90 90 ENE 3 6 29.92 1013 10 16.0934 0 0
4:35 pm 16:35 Cloudy 29 -1.5 26 -3.1 89 89 Calm 29.93 1014 10 16.0934 0 0
4:55 pm 16:55 Cloudy 29 -1.5 26 -3.2 88 88 Calm 29.94 1014 10 16.0934 0 0
5:15 pm 17:15 Cloudy 29 -1.5 26 -3.1 89 89 NNW 3 6 29.94 1014 10 16.0934 0 0
5:35 pm 17:35 Cloudy 30 -1.3 27 -3 88 88 N 3 6 29.94 1014 10 16.0934 0 0
6:15 pm 18:15 Cloudy 29 -1.5 27 -3 90 90 NNW 5 7 29.96 1015 10 16.0934 0 0
6:35 pm 18:35 Cloudy 29 -1.5 27 -3 90 90 NNW 3 6 29.97 1015 10 16.0934 0 0
6:55 pm 18:55 Cloudy 29 -1.6 26 -3.1 90 90 NNW 5 7 29.97 1015 10 16.0934 0 0
7:15 pm 19:15 Mostly Cloudy 28 -2.2 26 -3.5 91 91 Calm 29.98 1015 10 16.0934 0 0
7:35 pm 19:35 Partly Cloudy 26 -3.5 24 -4.6 92 92 Calm 30 1016 10 16.0934 0 0
7:55 pm 19:55 Mostly Cloudy 24 -4.5 22 -5.5 93 93 NW 5 7 30.02 1017 7 11.26538 0 0
8:15 pm 20:15 Cloudy 24 -4.2 23 -5.1 94 94 NW 5 7 30.03 1017 10 16.0934 0 0
8:35 pm 20:35 Cloudy 27 -3 25 -3.9 94 94 WNW 3 6 30.03 1017 10 16.0934 0 0
8:55 pm 20:55 Mostly Cloudy 26 -3.2 24 -4.2 93 93 WNW 7 11 30.03 1017 10 16.0934 0 0
9:15 pm 21:15 Cloudy 27 -2.7 25 -3.9 92 92 WNW 8 13 30.02 1017 10 16.0934 0 0
9:35 pm 21:35 Partly Cloudy 26 -3.2 24 -4.5 91 91 NW 6 9 30.03 1017 10 16.0934 0 0
9:55 pm 21:55 Clear 24 -4.5 22 -5.8 91 91 NW 6 9 30.05 1018 10 16.0934 0 0
10:15 pm 22:15 Clear 22 -5.8 19 -7.1 91 91 WNW 6 9 30.08 1018 10 16.0934 0 0
10:35 pm 22:35 Clear 21 -6 19 -7.1 92 92 NW 7 11 30.09 1019 10 16.0934 0 0
10:55 pm 22:55 Clear 24 -4.6 20 -6.4 87 87 NW 10 17 30.08 1019 10 16.0934 0 0
11:15 pm 23:15 Clear 24 -4.6 19 -7 84 84 NNW 9 15 30.09 1019 10 16.0934 0 0
11:35 pm 23:35 Clear 22 -5.4 18 -7.6 85 85 NNW 8 13 30.1 1019 10 16.0934 0 0
11:55 pm 23:55 Clear 21 -6 17 -8.1 85 85 WNW 9 15 30.12 1020 10 16.0934 0 0

Powered by AerisWeather